Regional Weather Roundup
Issued by NWS Pendleton, OR

Home | Current Version | Previous Version | Text Only | Print | Product List | Glossary On
Versions: 1 2 3 4 5 6 7 8 9 10 11 12 13 14 15 16 17 18 19 20 21 22 23 24 25 26 27 28 29 30 31 32 33 34 35 36 37 38 39 40 41 42 43 44 45 46 47 48 49 50
000
ASUS46 KPDT 021110
RWRPDT
PENDLETON REGIONAL WEATHER ROUNDUP
NATIONAL WEATHER SERVICE PENDLETON OREGON
400 AM PDT SUN AUG 2 2015

NOTE: FAIR INDICATES FEW OR NO CLOUDS BELOW 12,000 FEET WITH NO
SIGNIFICANT WEATHER AND/OR OBSTRUCTIONS TO VISIBILITY.

# INDICATES UNOFFICIAL STATION AND DATA

WAZ520-021210-
EAST SLOPES OF WASHINGTON CASCADES

CITY            SKY/WX      TMP DP  RH  WIND    PRES   REMARKS
#BULLFROG       N/A         56  42  59  S2      N/A
#BULLFROG 2SW   N/A         58  37  45  S1      27.56F
#BUMPING DAM    N/A         55  N/A N/A CALM    N/A
#CLE ELUM LAKE  N/A         66  30  26  CALM    29.77F
#CLIFFDEL 2NW   N/A         58  32  37  N1      N/A
#NELSON         N/A         56  41  57  CALM    29.84S
#NELSON 3SW     N/A         62  32  32  CALM    29.98S
#PEOH POINT     N/A         67  29  24  SW10    N/A
#RONALD 2NW     N/A         65  33  30  N3      29.86F
#TROUT LAKE 1NE N/A         53  41  64  CALM    29.80S
$$

WAZ521-021210-
SIMCOE HIGHLANDS

CITY            SKY/WX      TMP DP  RH  WIND    PRES   REMARKS
#BICKLETON HS   N/A         74   9   8  N5      N/A
#CENTERVILLE 4W N/A         71  42  35  CALM    29.64F
#CENTERVILLE 1SWN/A         62  42  48  CALM    29.74R
#GOLDENDALE     N/A         63  38  39  E2      N/A
#GOLDENDALE 1NE N/A         61  25  25  N7      N/A
#GOLDENDALE 5WNWN/A         68  38  33  N3      29.76S
#GOODNOE HILLS  N/A         75  39  27  W6      N/A
#LYLE 6NE       N/A         72  51  48  CALM    29.75R
$$

WAZ026-021210-
KITTITAS VALLEY

CITY            SKY/WX      TMP DP  RH  WIND    PRES   REMARKS
ELLENSBURG AP   CLOUDY      68  35  29  S3      29.89S
YTC-OPS AREA    N/A         73  24  16  W25G32  29.92R
#ELLENSBURG 3NE N/A         65  36  34  CALM    29.90R
#ELLENSBURG 1E  N/A         58  38  47  CALM    N/A
#KITTITAS 3S    N/A         54  47  77  CALM    29.79S
#THORP 6N       N/A         67  35  30  N13     29.79S
$$

WAZ027-021210-
YAKIMA VALLEY

CITY            SKY/WX      TMP DP  RH  WIND    PRES   REMARKS
SUNNYSIDE AP    MOCLDY      55  48  77  CALM    29.83S
YAKIMA AIRPORT  MOCLDY      63  43  48  W7      29.86S
#DONALD 2NE     N/A         78  18  10  NW1     28.69S
#GRANDVIEW      N/A         63  48  58  CALM    29.80R
#MABTON         N/A         63  52  67  CALM    29.81S
#MOXEE 2E       N/A         66  27  23  CALM    29.82S
#NACHES 2SW     N/A         73  36  26  W8      29.89S
#TERRACE HTS    N/A         72  33  24  CALM    29.73S
#UNION GAP DOT  N/A         77  33  20  N6      N/A
#WAPATO 4NE     N/A         78  18  10  NW1     28.69S
#WEST VALLEY    N/A         71  38  30  NW2     29.76S
#WILEY CITY 3W  N/A         63  27  25  CALM    29.84R
#ZILLAH DOT     N/A         72  39  30  NW1     N/A
$$

WAZ028-021210-
LOWER COLUMBIA BASIN...WASHINGTON

CITY            SKY/WX      TMP DP  RH  WIND    PRES   REMARKS
PASCO           MOCLDY      60  51  72  CALM    29.82R
RICHLAND AWOS   CLOUDY      68  48  49  CALM    29.81R
#BASIN CITY 5SW N/A         64  50  60  CALM    29.81R
#BENTON CITY    N/A         67  46  47  NW1     29.69R
#CONNELL 5N     N/A         65  37  35  CALM    29.76R
#ELTOPIA 6NW    N/A         74  43  33  CALM    28.80S
#KAHLOTUS       N/A         65  28  25  S7      29.76S
#KENNEWICK      N/A         58  37  45  S1      27.56F
#KENNEWICK 3S   N/A         73  35  25  CALM    29.77R
#PASCO-BROADMOORN/A         68  50  53  E1      29.69S
#PATERSON       N/A         71  42  35  NE1     29.76S
#PROSSER DOT    N/A         62  52  70  S2      N/A
#PROSSER        N/A         76  31  19  CALM    29.77R
#SAGEMOOR 2W    N/A         72  45  38  CALM    29.62S
#WEST PASCO     N/A         67  48  50  NE1     29.77R
$$

WAZ029-021210-
FOOTHILLS OF THE BLUES...WASHINGTON

CITY            SKY/WX      TMP DP  RH  WIND    PRES   REMARKS
WALLA WALLA AP  PTCLDY      73  26  17  E3      29.84S
#LOWDEN 2SE     N/A         55  45  69  CALM    29.79R
#PLEASANT VIEW 1N/A         76  31  19  CALM    29.78S
#PRESCOTT       N/A         57  38  49  CALM    29.77S
#WHITMAN COLLEGEN/A         74  29  19  E3      29.81S
#WALLA WALLA U  N/A         70  35  28  CALM    29.76S
$$

WAZ030-021210-
BLUE MOUNTAINS...WASHINGTON

CITY            SKY/WX      TMP DP  RH  WIND    PRES   REMARKS
$$

ORZ009-041-WAZ024-021210-
COLUMBIA RIVER GORGE

CITY            SKY/WX      TMP DP  RH  WIND    PRES   REMARKS
HOOD RIVER AP   PTCLDY      66  46  48  CALM    29.85S
THE DALLES AP   PTCLDY      72  50  46  W5      29.81R
#ARLINGTON AIRPON/A         77  45  32  W3      N/A
#MOSIER 1S      N/A         71  39  31  CALM    29.87R
#MURDOCK        N/A         78  54  43  W9      29.81R

$$

ORZ510-021210-
NORTH CENTRAL OREGON

CITY            SKY/WX      TMP DP  RH  WIND    PRES   REMARKS
#CHENOWITH 1W   N/A         73  46  38  W21     N/A
#DUFUR 9E       N/A         78  40  26  CALM    29.78S
#GRASS VALLEY 1SN/A         69  35  28  S5      29.78F
#MAUPIN SCHOOL  N/A         72  38  29  CALM    29.87R
#MORO SCHOOL    N/A         68  43  40  CALM    29.90S
#SHANIKO 4NW    N/A         81  25  13  E1      30.01
#TYGH VALLEY 2NEN/A         69  36  30  SW1     29.78S
#WAPANITIA AIRPON/A         70  40  34  CALM    29.78R
#WASCO 5NE      N/A         72  46  39  CALM    29.75S
$$

ORZ511-021210-
CENTRAL OREGON

CITY            SKY/WX      TMP DP  RH  WIND    PRES   REMARKS
BEND AIRPORT    CLOUDY      64  39  40  CALM    30.01R
MADRAS AIRPORT  MOCLDY      61  30  31  SE8     29.96S
PRINEVILLE AP   MOCLDY      63  27  25  MISG    29.99R
REDMOND AIRPORT MOCLDY      62  37  39  S3      29.98S
#BEND 1SW       N/A         62  43  50  NE2     N/A
#BEND-AWBREY    N/A         75  36  24  CALM    29.76R
#BEND-KIM LN    N/A         67  46  47  CALM    29.98S
#CULVER         N/A         70  30  22  CALM    29.91F
#LAKE BILLY CHINN/A         70   6   8  CALM    29.99S
#POWELL BUTTE 3EN/A         67  26  21  S2      N/A
#POWELL BUTTE   N/A         69  27  21  CALM    29.63S
#PRINEVILLE 3N  N/A         60  44  55  SW3     29.76R
#WARM SPRINGS   N/A         73  37  27  S5      29.87S

$$


ORZ509-021210-
EAST SLOPES OF OREGON CASCADES

CITY            SKY/WX      TMP DP  RH  WIND    PRES   REMARKS
#CAMP SHERMAN   N/A         58  42  55  CALM    29.77R
#LA PINE 4NW    N/A         53  43  69  CALM    29.85R
#SISTERS AIRPOR N/A         60  47  62  CALM    30.17S
#SISTERS 3N     N/A         57  39  51  CALM    30.19R
#SUNRIVER       N/A         56  48  74  CALM    29.70R

$$

ORZ044-021210-
LOWER COLUMBIA BASIN...OREGON

CITY            SKY/WX      TMP DP  RH  WIND    PRES   REMARKS
HERMISTON       PTCLDY      65  30  27  S3      29.82R
#BOARDMAN 8SW   N/A         71  49  46  SW1     29.77R
#ECHO 8SW       N/A         67  35  30  SW2     29.83R
#IONE SCHOOL    N/A         67  31  26  CALM    29.82S
#IRRIGON 4NW    N/A         65  59  81  E3      N/A
#UMATILLA       N/A         66  40  38  CALM    29.73R
$$

ORZ507-021210-
NORTHERN FOOTHILLS OF THE BLUES

CITY            SKY/WX      TMP DP  RH  WIND    PRES   REMARKS
PENDLETON AIRPT PTCLDY      63  28  26  S6      29.87R
#ADAMS 3WNW     N/A         59  27  29  CALM    29.79R
#ATHENA         N/A         61  35  38  CALM    29.80S
#CAYUSE         N/A         73  28  19  NE5     29.76S
#HELIX SCHOOL   N/A         58  28  32  CALM    29.78S
#HELIX 3N       N/A         72  26  18  W2      29.86S
#HOLDMAN 6E     N/A         71  25  18  CALM    29.60R
#M-F GROVE ELEM N/A         68  24  19  CALM    29.84S
#M-FREEWATER 5SEN/A         72  32  23  E3      29.85S
#PENDLETON DNTN N/A         60  27  28  CALM    N/A
#PDT AQUATIC CTRN/A         61  26  26  CALM    29.85S
#PENDLETON 7NW  N/A         64  34  33  E6      31.96S
#PILOT ROCK     N/A         71  21  15  S5      29.92R
#TUTUILLA       N/A         55  30  38  S1      29.83R
#UMAPINE 2E     N/A         62  45  54  CALM    29.79S

$$

ORZ508-021210-
SOUTHERN FOOTHILLS OF THE BLUES

CITY            SKY/WX      TMP DP  RH  WIND    PRES   REMARKS
#AJAX           N/A         79  34  20  CALM    29.85S
#CONDON SCHOOL  N/A         72  29  20  SE2     29.92S
#CONDON 5W      N/A         75  34  22  NW7     29.95S
#FOSSIL SCHOOL  N/A         62  25  24  CALM    29.91S
#HEPPNER EOC    N/A         68  27  21  E2      29.71S
#HEPPNER 4NE    N/A         77  33  20  S5      29.75S
#LEXINGTON 2SE  N/A         68  33  27  SE9     29.85S
#OLEX 4N        N/A         72  40  31  SW7     29.82S
#RUGGS 2SW      N/A         72  26  18  SW8     29.78R

$$

ORZ502-503-021210-
BLUE MOUNTAINS

CITY            SKY/WX      TMP DP  RH  WIND    PRES   REMARKS
MEACHAM         PTCLDY      45  30  55  CALM    30.03R
#HEPPNER 15SE   N/A         61  28  28  CALM    29.96R
#LONG CREEK HS  N/A         61  24  24  CALM    29.97R
#PIKES PEAK     N/A         81  26  13  S1      27.99S
#TOLLGATE       N/A         62  18  18  CALM    29.96S
#UKIAH          N/A         46  31  56  CALM    29.90R
$$

ORZ505-021210-
JOHN DAY BASIN

CITY            SKY/WX      TMP DP  RH  WIND    PRES   REMARKS
JOHN DAY        PTCLDY      67  32  27  CALM    30.01S
#JOHN DAY KJDY  N/A         59  48  67  NE1     30.09R
#DAYVILLE SCHOOLN/A         64  24  22  CALM    29.93S
#MONUMENT HS    N/A         59  27  29  CALM    29.95R
#MT. VERNON 5SE N/A         68  27  21  CALM    29.98S
#WINLOCK        N/A         67  33  28  CALM    30.06R
$$

ORZ506-021210-
OCHOCO AND JOHN DAY HIGHLANDS

CITY            SKY/WX      TMP DP  RH  WIND    PRES   REMARKS
#PINE MTN OBS   N/A         69  19  15  NW2     N/A
#SENECA         N/A         52  N/A N/A CALM    N/A
#SENECA 9NW     N/A         51  31  46  CALM    29.77S
$$

ORZ049-021210-
GRANDE RONDE VALLEY

CITY            SKY/WX      TMP DP  RH  WIND    PRES   REMARKS
LA GRANDE       PTCLDY      54  27  35  N5      29.97S
#COVE           N/A         58  36  44  CALM    29.99S
#COVE SCHOOL    N/A         58  36  44  CALM    30.00R
#ELGIN 3N       N/A         51  32  48  CALM    29.96R
#ELGIN 1E       N/A         52  33  48  CALM    N/A
#ISLAND CITY 4N N/A         62  49  62  CALM    29.88R
#UNION 1S       N/A         54  34  47  CALM    29.72S
$$

ORZ050-021210-
WALLOWA COUNTY

CITY            SKY/WX      TMP DP  RH  WIND    PRES   REMARKS
#IMNAHA SCHOOL  N/A         64  34  33  S3      29.93R
#IMNAHA 10S     N/A         65  32  29  SW5     29.97S
#JOSEPH 3N      N/A         48  36  63  CALM    30.05S
#JOSEPH 3W      N/A         66  13  13  SW3     29.91S
#PROMISE 1S     N/A         60  31  33  CALM    29.88S



$$



USA.gov is the U.S. government's official web portal to all federal, state and local government web resources and services.